Location: Oriwa
(40.7500°S, 175.3333°E)
Time: 14:16:08
(UTC+00:00)

Meteor 2-14 Rocket - Pass Details

Date: 03 February 2023
Orbit: 938 x 955 km, 82.5° (Epoch: 31 March)

Event Time Altitude Azimuth Distance (km) Brightness Sun altitude
Rises 15:32:33 0° 189° (S) 3,669 8.0 -19.2°
Reaches altitude 10° 15:35:04 10° 189° (S) 2,715 7.3 -18.8°
Maximum altitude 15:41:18 84° 275° (W) 972 4.4 -18.0°
Drops below altitude 10° 15:47:26 10° 3° (N) 2,672 6.4 -17.1°
Enters shadow 15:47:41 - 3° (N) 2,766 6.5 -17.1°
